Vorticity
-5 -3 0 -1 9 7 8 8 23 10 21 10 5 10 16 14 -0 23 11 62 23 9 12 8 18 18 21 28 38 31 13 8 16 1 -5 8 6 11 2 13 9 11 8 10 12 3 15
4 3 -5 1 2 4 8 8 26 14 19 10 2 13 13 -1 3 12 24 48 32 15 8 13 18 13 14 46 27 33 37 8 13 2 -5 23 1 9 10 4 13 5 8 31 -9 5 3
5 5 3 1 6 4 6 9 19 14 18 9 7 15 6 -1 5 21 28 37 32 12 23 18 15 11 24 19 -0 24 49 19 3 14 15 24 -1 7 10 6 10 7 10 -4 -14 31 15
-2 1 4 1 4 7 7 3 27 16 20 12 6 13 -4 5 -4 13 47 38 16 33 12 16 18 22 26 17 30 4 41 25 11 3 22 11 5 6 8 11 4 13 6 5 10 -21 19
7 5 12 2 -1 3 4 9 19 25 23 12 -0 12 5 -14 -2 -10 6 47 36 25 9 7 14 24 5 2 -7 38 28 35 13 14 18 10 21 -0 7 8 8 -2 8 10 5 16 -4
8 -0 7 0 4 1 2 1 23 34 21 10 2 10 -4 1 -1 3 6 3 42 36 8 6 8 23 19 8 15 14 33 -9 35 8 12 23 12 11 5 5 1 24 -11 10 11 20 29
-3 4 -1 6 7 -0 1 2 18 31 19 16 13 0 19 -3 2 7 17 -9 29 46 28 7 28 20 18 -2 22 22 34 26 10 -21 -1 -21 16 14 11 4 3 15 17 2 4 12 3
10 8 6 4 4 4 4 1 6 40 16 21 9 14 4 -2 17 0 10 12 7 36 52 25 12 8 -7 2 17 27 37 8 -3 -4 4 -9 16 9 15 9 3 8 13 13 5 6 10
-3 5 5 2 1 3 7 3 3 35 25 22 9 10 2 5 14 -7 5 12 16 3 26 26 18 30 19 4 39 22 -34 35 12 8 36 19 24 6 11 11 6 4 11 10 10 7 4
15 10 4 5 2 5 3 4 6 12 40 17 14 7 8 3 7 -4 7 11 8 30 23 16 24 40 21 58 29 -22 -32 6 25 12 1 12 22 21 10 10 8 6 6 8 7 10 11
17 1 2 7 2 0 1 3 5 7 52 18 21 8 13 10 5 -5 13 12 9 -3 25 9 26 16 3 24 24 -38 3 12 34 20 -2 45 10 9 5 4 6 6 6 8 8 8 9
18 0 3 -1 -0 7 2 3 4 4 56 25 17 9 8 7 3 0 5 7 5 14 25 17 30 21 25 55 -27 29 30 12 -19 26 -10 -20 -5 -0 12 6 9 6 6 9 10 8 7
19 7 10 1 1 6 6 2 3 5 21 28 17 18 11 10 -1 -1 -5 11 7 -5 11 13 6 25 18 28 -9 13 5 -2 -9 2 20 17 3 7 10 7 4 3 2 3 6 8 12
-14 19 12 -4 5 3 6 6 1 6 10 44 24 27 9 7 7 4 -2 4 5 -30 1 26 8 6 17 7 19 -2 -11 11 -6 4 -2 1 3 3 9 2 3 7 4 5 15 8 5
9 14 9 -10 -1 3 4 7 1 2 13 56 30 20 13 9 6 5 6 2 5 11 -1 12 9 -8 -7 5 -15 36 11 12 8 -10 -6 9 -3 -1 3 18 12 9 4 8 10 9 14
-1 6 21 -7 3 -1 -1 3 5 0 1 31 38 23 26 8 5 5 9 1 1 9 9 3 10 31 26 23 21 26 35 15 7 5 8 5 -5 -4 12 6 9 1 1 4 13 -2 7
-7 -1 20 3 4 -1 4 5 6 5 2 16 72 14 20 11 11 4 2 8 7 -0 6 11 4 4 7 -1 11 16 4 6 10 11 9 4 1 13 10 14 12 9 2 10 12 -2 4
13 -5 5 14 3 -3 -2 6 6 4 4 2 64 17 17 17 6 10 13 0 7 7 -2 7 8 16 4 2 2 8 11 34 9 9 8 9 22 -5 18 6 -3 9 5 5 5 15 18
3 9 1 31 -5 3 -9 9 7 3 5 -3 39 29 21 24 9 5 11 7 11 11 14 1 1 5 9 7 5 7 5 5 6 11 16 29 10 5 9 12 5 25 21 13 12 9 22
-1 9 6 25 7 6 2 5 -0 8 1 -4 39 50 21 22 18 6 9 5 9 8 14 15 11 8 8 7 4 7 10 9 7 4 3 6 6 7 9 5 -1 0 6 6 9 13 13
3 9 12 22 5 7 5 0 10 -0 5 3 30 36 21 20 26 11 4 11 7 4 7 6 8 12 11 9 7 9 9 11 12 12 9 7 4 3 10 10 10 12 9 7 17 14 16
3 8 15 16 19 -1 7 -4 20 8 8 1 28 38 43 16 23 17 12 8 10 9 8 9 7 9 9 7 4 1 4 10 10 14 14 16 15 13 8 6 7 3 5 6 4 2 8
-8 15 12 14 14 -3 8 -5 17 5 -1 -11 20 35 25 17 21 22 14 9 7 6 5 5 7 9 9 11 16 16 13 9 7 12 8 8 13 12 14 13 11 12 14 9 9 5 5
4 7 12 17 4 9 -2 -3 -4 19 12 -14 21 36 25 17 12 25 6 18 4 6 7 6 4 7 7 8 7 11 16 13 11 10 12 9 7 8 17 12 7 9 12 11 16 12 10
16 7 9 14 5 1 -2 -5 -8 17 12 4 22 43 26 9 29 20 37 -11 13 2 7 8 3 1 3 4 5 5 8 13 15 13 7 0 9 11 10 11 9 11 10 15 17 16 17
12 4 11 12 4 3 2 3 -1 -0 17 2 18 46 22 20 23 20 28 41 3 6 3 3 8 6 5 2 5 3 8 8 9 11 13 8 12 10 10 13 14 10 11 10 15 13 8
10 3 16 9 5 6 -3 -7 9 -12 32 4 26 40 19 23 22 10 14 23 25 9 6 5 2 2 1 2 6 13 13 6 4 11 10 8 10 9 11 11 10 9 12 8 7 13 11
10 19 15 10 4 3 4 5 4 -5 35 6 17 40 17 20 16 7 22 16 21 16 23 14 -3 8 6 7 8 7 10 9 9 8 2 5 11 9 4 5 12 9 12 9 11 7 13
23 17 12 10 9 10 9 2 7 2 41 -2 35 41 16 14 15 22 22 19 21 18 9 7 33 2 3 3 5 4 3 6 7 7 7 9 7 1 8 15 10 6 8 10 9 11 6
Height
5795 5783 5772 5758 5745 5732 5718 5704 5691 5680 5670 5661 5650 5637 5623 5610 5595 5579 5562 5551 5549 5547 5547 5547 5546 5547 5549 5555 5570 5583 5603 5620 5630 5645 5656 5667 5680 5690 5701 5711 5719 5726 5736 5741 5746 5755 5763
5793 5781 5769 5756 5742 5729 5714 5699 5686 5675 5666 5656 5647 5635 5622 5608 5593 5574 5557 5547 5544 5543 5543 5544 5543 5544 5546 5550 5559 5575 5594 5610 5626 5639 5651 5660 5676 5685 5694 5704 5712 5723 5728 5732 5738 5747 5754
5790 5779 5767 5753 5740 5725 5712 5696 5683 5672 5662 5652 5644 5634 5622 5609 5592 5573 5555 5545 5542 5541 5540 5540 5541 5543 5546 5550 5560 5569 5582 5602 5618 5632 5647 5659 5668 5678 5689 5698 5706 5712 5719 5721 5732 5742 5751
5788 5777 5765 5751 5738 5724 5710 5696 5683 5670 5660 5650 5644 5634 5624 5611 5595 5577 5557 5547 5542 5540 5541 5541 5542 5545 5548 5553 5559 5566 5574 5593 5614 5630 5643 5654 5660 5673 5682 5692 5697 5706 5711 5716 5728 5737 5744
5786 5775 5763 5751 5737 5723 5708 5695 5681 5670 5659 5651 5645 5635 5625 5614 5601 5586 5568 5552 5545 5542 5543 5544 5545 5548 5552 5556 5562 5568 5576 5592 5615 5629 5639 5649 5657 5669 5676 5686 5693 5700 5709 5719 5727 5733 5740
5783 5772 5762 5749 5735 5721 5708 5694 5680 5668 5659 5651 5644 5636 5627 5618 5608 5593 5582 5567 5552 5546 5546 5546 5547 5554 5556 5560 5566 5571 5578 5594 5611 5627 5638 5644 5654 5664 5672 5682 5692 5704 5712 5718 5724 5730 5735
5780 5770 5760 5747 5735 5721 5707 5694 5679 5668 5659 5652 5644 5636 5629 5621 5613 5602 5589 5579 5569 5555 5549 5551 5552 5557 5561 5566 5568 5574 5581 5594 5608 5623 5635 5643 5653 5666 5676 5683 5691 5701 5707 5713 5720 5725 5729
5777 5768 5758 5746 5733 5719 5707 5693 5679 5668 5658 5651 5646 5639 5632 5625 5617 5608 5598 5588 5580 5570 5560 5558 5559 5563 5566 5570 5572 5576 5586 5600 5612 5626 5635 5644 5655 5663 5671 5679 5687 5694 5701 5708 5712 5717 5723
5774 5766 5756 5745 5733 5720 5707 5693 5678 5667 5659 5651 5645 5640 5634 5628 5622 5615 5606 5598 5590 5584 5575 5570 5568 5569 5571 5575 5576 5582 5588 5602 5617 5629 5635 5643 5652 5660 5668 5677 5685 5691 5699 5703 5708 5713 5718
5772 5763 5753 5744 5732 5720 5707 5694 5679 5666 5660 5651 5644 5640 5636 5630 5628 5620 5613 5607 5601 5593 5588 5583 5578 5577 5577 5577 5581 5588 5598 5605 5618 5629 5637 5644 5651 5658 5666 5674 5682 5688 5694 5699 5702 5707 5714
5769 5760 5751 5742 5732 5720 5708 5694 5680 5667 5658 5651 5644 5640 5636 5631 5630 5626 5619 5613 5609 5603 5598 5594 5589 5588 5589 5589 5589 5596 5602 5611 5623 5631 5637 5643 5651 5659 5666 5674 5680 5685 5690 5696 5700 5701 5705
5766 5757 5749 5741 5730 5719 5707 5692 5679 5666 5657 5651 5644 5639 5637 5634 5630 5629 5624 5618 5616 5612 5604 5603 5599 5598 5598 5600 5603 5605 5610 5618 5623 5630 5638 5647 5653 5660 5666 5671 5677 5682 5687 5692 5694 5696 5697
5762 5754 5746 5739 5730 5720 5707 5692 5679 5666 5655 5649 5644 5638 5635 5634 5631 5629 5628 5624 5622 5617 5614 5611 5607 5606 5607 5610 5615 5616 5618 5624 5630 5634 5640 5646 5653 5660 5665 5669 5674 5679 5683 5687 5689 5689 5694
5758 5751 5743 5736 5728 5718 5705 5692 5677 5664 5654 5647 5642 5637 5633 5633 5631 5629 5629 5628 5625 5622 5621 5617 5615 5614 5615 5617 5619 5623 5627 5629 5634 5639 5643 5647 5653 5658 5662 5666 5672 5674 5677 5682 5682 5683 5688
5754 5747 5740 5733 5726 5716 5704 5691 5676 5663 5652 5643 5638 5635 5631 5630 5629 5628 5627 5628 5628 5626 5626 5624 5623 5622 5620 5622 5623 5624 5625 5630 5635 5640 5645 5649 5654 5658 5662 5664 5667 5670 5674 5677 5678 5679 5680
5749 5744 5737 5730 5723 5714 5703 5690 5675 5662 5650 5641 5635 5631 5628 5626 5626 5627 5625 5627 5628 5628 5628 5627 5625 5625 5624 5624 5623 5623 5626 5631 5635 5639 5643 5648 5652 5654 5657 5660 5663 5666 5670 5672 5672 5673 5674
5744 5739 5733 5726 5720 5712 5701 5688 5676 5661 5648 5638 5632 5626 5624 5624 5623 5624 5624 5624 5626 5627 5628 5629 5628 5628 5628 5627 5627 5628 5629 5631 5633 5638 5642 5645 5649 5653 5655 5656 5660 5663 5665 5667 5668 5667 5667
5739 5733 5727 5721 5715 5710 5700 5687 5674 5659 5646 5635 5627 5623 5619 5618 5620 5619 5620 5620 5623 5625 5626 5628 5629 5630 5629 5630 5630 5631 5632 5635 5638 5640 5643 5645 5648 5650 5654 5655 5657 5658 5660 5661 5662 5665 5663
5733 5727 5722 5715 5710 5706 5697 5687 5674 5657 5643 5632 5624 5618 5615 5612 5613 5613 5615 5615 5618 5621 5623 5625 5627 5629 5630 5630 5631 5632 5633 5635 5637 5639 5641 5642 5646 5648 5650 5654 5654 5653 5655 5657 5658 5658 5656
5727 5722 5716 5710 5707 5702 5694 5684 5672 5655 5642 5630 5621 5615 5611 5607 5607 5609 5609 5611 5613 5616 5619 5621 5624 5626 5627 5628 5629 5630 5632 5633 5635 5636 5638 5639 5641 5644 5646 5648 5649 5650 5651 5652 5653 5651 5653
5721 5716 5710 5706 5701 5698 5690 5681 5669 5651 5638 5626 5616 5610 5605 5603 5602 5603 5606 5608 5609 5613 5616 5618 5620 5622 5624 5626 5627 5628 5629 5630 5631 5632 5634 5635 5637 5639 5640 5642 5643 5645 5646 5647 5648 5648 5647
5715 5711 5705 5701 5697 5693 5685 5677 5666 5651 5634 5622 5611 5605 5599 5596 5596 5598 5601 5604 5606 5608 5611 5614 5617 5619 5621 5623 5624 5624 5626 5627 5628 5628 5629 5631 5633 5634 5636 5637 5638 5639 5640 5642 5644 5644 5644
5708 5704 5700 5695 5691 5688 5682 5674 5664 5648 5633 5619 5608 5600 5594 5594 5592 5593 5595 5600 5602 5604 5607 5610 5613 5615 5617 5619 5620 5620 5621 5622 5624 5625 5626 5627 5629 5630 5631 5632 5633 5635 5637 5636 5637 5638 5641
5702 5697 5693 5690 5685 5682 5676 5669 5660 5645 5631 5614 5605 5597 5592 5591 5590 5588 5589 5593 5596 5598 5602 5606 5608 5611 5613 5615 5616 5617 5618 5619 5619 5621 5622 5624 5625 5626 5627 5628 5629 5631 5631 5631 5632 5633 5633
5695 5689 5686 5684 5679 5675 5669 5663 5656 5642 5628 5613 5602 5595 5589 5586 5584 5584 5583 5585 5589 5592 5596 5600 5604 5608 5609 5611 5614 5615 5616 5616 5617 5618 5619 5621 5621 5622 5622 5624 5626 5626 5626 5627 5628 5629 5629
5686 5684 5681 5677 5673 5668 5663 5657 5650 5639 5623 5610 5599 5588 5585 5583 5580 5577 5577 5579 5582 5586 5590 5595 5598 5601 5604 5607 5609 5611 5613 5613 5614 5615 5616 5617 5617 5619 5619 5620 5621 5622 5623 5624 5624 5626 5626
5677 5677 5674 5671 5667 5662 5657 5651 5644 5635 5620 5607 5593 5584 5580 5577 5574 5575 5573 5572 5577 5581 5584 5589 5592 5596 5599 5602 5604 5607 5609 5610 5611 5612 5613 5613 5614 5615 5615 5616 5618 5617 5619 5620 5622 5625 5622
5670 5668 5667 5664 5660 5656 5650 5644 5637 5628 5618 5603 5588 5579 5575 5572 5571 5570 5569 5568 5568 5575 5578 5582 5587 5589 5593 5596 5598 5601 5603 5605 5606 5608 5608 5609 5610 5611 5612 5613 5614 5614 5616 5617 5618 5618 5619
5661 5660 5659 5656 5653 5649 5643 5636 5629 5621 5612 5597 5586 5578 5573 5568 5566 5566 5565 5564 5564 5566 5572 5576 5579 5584 5587 5590 5594 5595 5598 5599 5601 5603 5603 5605 5605 5606 5608 5609 5610 5610 5611 5612 5613 5614 5616